User: anonymous   Login
Location: Unspecified
(0.0000°N, 0.0000°E)
Time: 05:01:15
(UTC+00:00)
Language:

SAR-Lupe-1 - Orbit

View from above orbital plane
View from above orbital plane
View from above satellite
View from above satellite

Ground track
Ground track

The orbit data is extracted from the following two-line orbital elements,

1 29658U 06060A   18222.96011746 0.00000700  00000-0  25877-4 0    04
2 29658  98.1078 316.3134 0001000   2.8384 357.1615 15.27746291    04
Epoch (UTC): 10 August 2018 23:02:34
Eccentricity: 0.0001000
inclination: 98.1078°
perigee height: 482 km
apogee height: 483 km
right ascension of ascending node: 316.3134°
argument of perigee: 2.8384°
revolutions per day: 15.27746291
mean anomaly at epoch: 357.1615°
orbit number at epoch: 0

The dashed part of the orbit path shows where the satellite is in the earth's shadow,  

DLR